CDT,Max TemperatureF,Mean TemperatureF,Min TemperatureF,Max Dew PointF,MeanDew PointF,Min DewpointF,Max Humidity, Mean Humidity, Min Humidity, Max Sea Level PressureIn, Mean Sea Level PressureIn, Min Sea Level PressureIn, Max VisibilityMiles, Mean VisibilityMiles, Min VisibilityMiles, Max Wind SpeedMPH, Mean Wind SpeedMPH, Max Gust SpeedMPH,PrecipitationIn, CloudCover, Events, WindDirDegrees
2013-10-1,91,81,72,75,73,70,96,80,51,29.98,29.92,29.87,10,9,2,13,5,,0.00,4,,131
2013-10-2,91,83,76,75,73,71,94,76,54,30.02,29.96,29.89,10,10,7,13,7,18,0.00,5,Rain,152
2013-10-3,92,83,74,74,73,71,94,75,51,29.96,29.90,29.85,10,10,7,13,6,17,0.00,3,,166
2013-10-4,91,84,76,75,72,69,93,73,48,29.94,29.90,29.86,10,10,10,13,6,18,0.00,3,,162
2013-10-5,79,66,54,76,62,51,96,86,72,30.09,29.99,29.90,10,10,5,18,7,24,0.00,6,Rain-Thunderstorm,298
2013-10-6,76,64,51,53,48,42,97,63,30,30.09,30.04,29.99,10,10,10,15,7,22,0.00,0,,307
2013-10-7,81,66,51,47,43,35,76,47,20,30.15,30.10,30.05,10,10,10,10,5,17,0.00,0,,330
2013-10-8,79,66,52,55,52,47,88,62,38,30.15,30.09,30.03,10,9,0,10,3,16,0.00,0,Fog,117
2013-10-9,83,68,54,59,55,51,89,67,40,30.12,30.06,30.01,10,10,10,9,5,,0.00,0,,130
2013-10-10,85,71,57,63,59,55,94,69,40,30.10,30.02,29.93,10,10,10,13,4,18,0.00,0,,132
2013-10-11,88,75,63,71,67,60,91,74,57,29.97,29.91,29.85,10,10,10,13,6,20,0.00,4,,155
2013-10-12,90,80,70,77,73,68,96,83,65,30.10,29.98,29.89,10,9,2,10,5,,0.00,6,Rain-Thunderstorm,152
2013-10-13,81,76,71,73,70,68,96,84,65,30.24,30.17,30.10,10,9,4,14,5,22,0.00,5,,114
2013-10-14,73,68,65,72,66,60,96,89,70,30.19,30.07,29.96,10,7,2,12,6,16,0.00,8,Rain,122
2013-10-15,76,66,56,74,67,54,96,93,91,30.06,29.96,29.91,10,8,3,12,7,18,0.00,8,Rain,319
2013-10-16,63,59,55,58,54,52,95,86,74,30.10,30.04,30.01,10,10,2,12,6,18,0.00,8,Rain,2
2013-10-17,73,60,47,55,50,46,93,71,43,30.12,30.05,29.99,10,10,7,7,4,,0.00,0,,270
2013-10-18,74,62,51,61,55,50,95,80,52,30.07,30.00,29.93,10,10,4,15,2,22,0.00,6,Rain-Thunderstorm,133
2013-10-19,68,56,45,50,43,37,88,66,32,30.19,30.11,30.07,10,10,7,17,10,24,0.00,3,,320
2013-10-20,73,58,43,50,45,42,94,65,36,30.07,30.00,29.90,10,10,7,14,4,18,0.00,0,,155
2013-10-21,66,60,53,61,55,50,96,88,72,30.10,30.01,29.95,10,9,3,10,4,,0.00,6,Rain-Thunderstorm,52
2013-10-22,77,60,44,51,48,43,94,66,34,30.15,30.07,29.98,10,10,10,13,5,18,0.00,0,,286
2013-10-23,79,64,50,55,50,47,90,61,34,30.15,30.08,30.03,10,10,7,8,4,,0.00,0,,165
2013-10-24,75,63,51,56,49,42,95,66,36,30.32,30.19,30.03,10,10,3,13,4,16,0.00,0,,22
2013-10-25,65,57,49,45,40,33,81,58,39,30.47,30.37,30.27,10,10,10,18,7,24,0.00,0,,110
2013-10-26,60,54,49,60,50,44,97,88,77,30.27,30.19,30.08,10,8,2,12,5,16,0.00,6,Rain-Thunderstorm,102
2013-10-27,65,62,59,60,59,58,98,89,80,30.13,30.07,30.03,10,8,0,8,2,,0.00,8,Fog,284
2013-10-28,75,68,60,66,62,59,96,82,67,30.15,30.09,30.04,10,10,10,13,4,18,0.00,7,,129
2013-10-29,80,74,68,71,69,65,93,81,70,30.11,30.06,30.01,10,10,7,15,8,23,0.00,7,,160
2013-10-30,76,72,67,71,68,63,95,87,68,30.04,29.97,29.83,10,10,2,21,9,30,0.00,6,Rain,162
2013-10-31,79,69,59,72,59,45,97,71,33,29.85,29.73,29.64,10,9,1,24,9,33,0.00,3,Rain,237